McCook, NE

3:03 PM CST on February 13, 2016 (GMT -0600)
McCook Municipal

Weather History for KMCK - September, 2015

Change the Weather History Date:

Wednesday, September 2, 2015

  Actual Average Record
Temperature  
Mean Temperature 80 °F 70 °F  
Max Temperature 100 °F 85 °F 103 °F (1964)
Min Temperature 59 °F 56 °F 41 °F (1928)
Cooling Degree Days 14    
Growing Degree Days 30 (Base 50)    
Moisture  
Dew Point 57 °F    
Average Humidity 52    
Maximum Humidity 90    
Minimum Humidity 21    
Precipitation  
Precipitation 0.00 in 0.05 in 1.02 in (1951)
Month to date precipitation T 0.11  
Year to date precipitation 15.08 17.82  
Sea Level Pressure  
Sea Level Pressure 29.79 in    
Wind  
Wind Speed 4 mph (SE)    
Max Wind Speed 13 mph    
Max Gust Speed -    
Visibility 10 miles    
Events      
T = Trace of Precipitation, MM = Missing Value Source: NWS Daily Summary

Daily Weather History Graph

Daily Weather History Graph

Search for Another Location

Airport or City:

Trip Planner

Search our weather history database for the weather conditions in past years. The results will help you decide how hot, cold, wet, or windy it might be!

Date:

Astronomy

Sep. 02, 2015 Rise Set
Actual Time 7:10 AM CDT 8:12 PM CDT
Civil Twilight 6:42 AM CDT 8:40 PM CDT
Nautical Twilight 6:09 AM CDT 9:13 PM CDT
Astronomical Twilight 5:35 AM CDT 9:47 PM CDT
Moon 10:53 PM CDT (9/2) 11:43 AM CDT (9/2)
Length of Visible Light 13h 57m
Length of Day
13h 02m
Waning Gibbous, 79% of the Moon is Illuminated
Sep 2
Waning Gibbous
Sep 5
Last Quarter
Sep 13
New
Sep 21
First Quarter
Sep 27
Full

Hourly Weather History & Observations

Time (CDT) Temp. Heat Index Dew Point Humidity Pressure Visibility Wind Dir Wind Speed Gust Speed Precip Events Conditions
12:53 AM 72.0 °F - 57.0 °F 59% 29.83 in 10.0 mi WSW 3.5 mph - N/A   Clear
1:53 AM 70.0 °F - 57.9 °F 65% 29.83 in 10.0 mi Calm Calm - N/A   Clear
2:53 AM 66.9 °F - 57.0 °F 70% 29.82 in 10.0 mi Calm Calm - N/A   Clear
3:53 AM 63.0 °F - 57.0 °F 81% 29.83 in 10.0 mi Calm Calm - N/A   Clear
4:53 AM 62.1 °F - 57.0 °F 84% 29.83 in 10.0 mi Calm Calm - N/A   Clear
5:53 AM 60.1 °F - 57.0 °F 90% 29.83 in 10.0 mi SSW 3.5 mph - N/A   Clear
6:53 AM 62.1 °F - 57.0 °F 84% 29.82 in 10.0 mi WSW 6.9 mph - N/A   Clear
7:53 AM 62.1 °F - 57.0 °F 84% 29.84 in 7.0 mi Calm Calm - N/A   Clear
8:53 AM 66.9 °F - 59.0 °F 76% 29.86 in 10.0 mi WSW 5.8 mph - N/A   Unknown
9:53 AM 75.0 °F - 60.1 °F 60% 29.84 in 10.0 mi West 5.8 mph - N/A   Clear
10:53 AM 82.0 °F 82.4 °F 60.1 °F 47% 29.83 in 10.0 mi SSW 4.6 mph - N/A   Clear
11:53 AM 87.1 °F 87.0 °F 61.0 °F 41% 29.83 in 10.0 mi Calm Calm - N/A   Clear
12:53 PM 93.9 °F 93.2 °F 59.0 °F 31% 29.81 in 10.0 mi SE 8.1 mph - N/A   Clear
1:53 PM 98.1 °F 96.4 °F 55.0 °F 24% 29.78 in 10.0 mi East 11.5 mph - N/A   Clear
2:53 PM 99.0 °F 96.5 °F 53.1 °F 21% 29.77 in 10.0 mi SSE 12.7 mph - N/A   Clear
3:53 PM 99.0 °F - 52.0 °F 21% 29.76 in 10.0 mi SE 12.7 mph - N/A   Clear
4:53 PM 99.0 °F 97.3 °F 55.0 °F 23% 29.74 in 10.0 mi SSE 8.1 mph - N/A   Clear
5:53 PM 99.0 °F 96.9 °F 54.0 °F 22% 29.73 in 10.0 mi SE 9.2 mph - N/A   Clear
6:53 PM 96.1 °F 93.8 °F 54.0 °F 24% 29.73 in 10.0 mi ESE 8.1 mph - N/A   Clear
7:53 PM 89.1 °F 87.7 °F 57.0 °F 34% 29.74 in 10.0 mi East 6.9 mph - N/A   Clear
8:53 PM 82.9 °F 82.8 °F 59.0 °F 44% 29.75 in 10.0 mi ENE 6.9 mph - N/A   Clear
9:53 PM 79.0 °F - 60.1 °F 52% 29.76 in 10.0 mi ENE 6.9 mph - N/A   Clear
10:53 PM 77.0 °F - 61.0 °F 58% 29.75 in 10.0 mi East 8.1 mph - N/A   Clear
11:53 PM 75.0 °F - 61.0 °F 62% 29.75 in 10.0 mi East 8.1 mph - N/A   Clear